[[{"header":{"parameterUnit":"m.s-1","parameterCategory":1,"la1":30.2992,"la2":30.254,"lo1":-89.0895,"lo2":-89.0443,"dy":0.0025,"dx":0.0025,"nx":19,"ny":19,"refTime":"2026-05-13T09:00:00:Z","depth":0,"parameterNumber":2,"parameterNumberName":"U-component_of_WINDS"},"data":[0,0,0,0.8336,0.8339,0.8504,0.8505,0.8708,0.8709,0,0,0,0,0,0,0,0,0,0,0,0.8277,0.8278,0.8335,0.8339,0.8504,0.8505,0.8707,0.8709,0,0,0,0,0,0,0,0,0,0,0,0.8277,0.8278,0.8279,0.834,0.8504,0.8505,0.8707,0.8586,0,0,0,0,0,0,0,0,0,0,0.8427,0.8364,0.8278,0.8279,0.8341,0.8504,0.8505,0.8581,0.8594,0.8628,0,0.8652,0,0.8684,0.8722,0.8723,0,0,0,0.8347,0.8353,0.8405,0.8279,0.8342,0.8504,0.8432,0.8588,0.8603,0.8645,0.8655,0.8663,0.8687,0.8723,0.8724,0.8887,0.8887,0,0,0.8338,0.8303,0.8395,0.8414,0.8384,0.8427,0.8437,0.8597,0.8607,0.8656,0.8668,0.869,0.8724,0.8726,0.8887,0.8887,0,0,0,0.8306,0.8296,0.8345,0.8406,0.8436,0.8431,0.8443,0.86,0.8619,0.867,0.8693,0.8726,0.8728,0.8886,0.8887,0.8872,0,0,0,0.8301,0.8278,0.8341,0.8321,0.8433,0.8519,0.8442,0.8608,0.8627,0.8692,0.8726,0.873,0.8886,0.8887,0.8871,0.887,0,0,0,0.827,0.8274,0.8295,0.8319,0.8388,0.8518,0.8546,0.8613,0.864,0.8723,0.873,0.8886,0.8886,0.8871,0.887,0.8903,0,0,0,0.8227,0.8279,0.8294,0.8362,0.8387,0.8506,0.8545,0.8636,0.8705,0.8727,0.8886,0.8887,0.887,0.8869,0.8903,0.8925,0.893,0,0,0.8274,0.8284,0.8327,0.8344,0.8451,0.8483,0.8591,0.8688,0.8729,0.8833,0.8838,0.8871,0.887,0.8903,0.8975,0.8979,0,0,0,0.833,0.836,0.8396,0.8459,0.8533,0.8598,0.8682,0.8719,0.8809,0.8774,0.8894,0.8894,0.8915,0.8927,0.8931,0.8952,0.8891,0.8891,0.8891,0.8346,0.8395,0.847,0.8539,0.8599,0.8686,0.8742,0.8807,0.8839,0.8867,0.8897,0.8935,0.8948,0.8951,0.8972,0.8913,0.8913,0.8913,0.8913,0.842,0.8471,0.8512,0.86,0.8652,0.8728,0.8816,0.8836,0.8917,0.8915,0.8936,0.893,0.8954,0.8975,0.8913,0.8913,0.8913,0.8913,0.8913,0.8435,0.8468,0.8511,0.8608,0.8678,0.8748,0.8822,0.8869,0.8913,0.8934,0.8972,0.8973,0.898,0.8949,0.8949,0.8949,0.8949,0.8949,0.895,0.8434,0.8483,0.8539,0.8623,0.867,0.8739,0.8829,0.8878,0.8945,0.8973,0.8974,0.9004,0.8947,0.8931,0.8952,0.8951,0.8951,0.8951,0.8951,0.849,0.8485,0.8571,0.8618,0.8723,0.879,0.8849,0.8945,0.8993,0.9029,0.9057,0.9006,0.902,0.9018,0.9005,0.9044,0.9044,0.9044,0.9044,0.8504,0.8515,0.8614,0.8687,0.8764,0.8826,0.8925,0.8997,0.9071,0.9105,0.9106,0.9094,0.9089,0.9107,0.9102,0.9092,0.9152,0.9152,0.9152,0.8541,0.8563,0.8636,0.8706,0.8792,0.8865,0.8961,0.9046,0.913,0.9157,0.9133,0.9128,0.9109,0.91,0.9124,0.9116,0.9098,0,0]},{"header":{"parameterUnit":"m.s-1","parameterCategory":1,"la1":30.2992,"la2":30.254,"lo1":-89.0895,"lo2":-89.0443,"dy":0.0025,"dx":0.0025,"nx":19,"ny":19,"refTime":"2026-05-13T09:00:00:Z","depth":0,"parameterNumber":3,"parameterNumberName":"V-component_of_WINDS"},"data":[0,0,0,-0.5476,-0.5474,-0.5387,-0.5386,-0.5239,-0.5238,0,0,0,0,0,0,0,0,0,0,0,-0.5481,-0.5479,-0.5476,-0.5474,-0.5387,-0.5386,-0.524,-0.5238,0,0,0,0,0,0,0,0,0,0,0,-0.5482,-0.548,-0.5478,-0.5473,-0.5387,-0.5386,-0.524,-0.5318,0,0,0,0,0,0,0,0,0,0,-0.5409,-0.5393,-0.548,-0.5478,-0.5473,-0.5387,-0.5386,-0.5322,-0.5313,-0.5264,0,-0.5215,0,-0.5224,-0.5226,-0.5225,0,0,0,-0.5488,-0.54,-0.5396,-0.5477,-0.5472,-0.5387,-0.543,-0.5318,-0.5307,-0.5251,-0.5213,-0.5209,-0.5222,-0.5224,-0.5224,-0.4893,-0.4891,0,0,-0.5493,-0.5453,-0.5403,-0.5388,-0.5401,-0.5433,-0.5427,-0.5312,-0.5267,-0.5213,-0.5206,-0.5219,-0.5223,-0.5222,-0.4895,-0.4892,0,0,0,-0.5497,-0.5456,-0.5456,-0.5394,-0.5381,-0.543,-0.5423,-0.5272,-0.5276,-0.5205,-0.5217,-0.5222,-0.522,-0.4898,-0.4894,-0.4744,0,0,0,-0.5501,-0.5458,-0.5457,-0.5431,-0.5382,-0.5326,-0.5386,-0.5284,-0.5272,-0.5218,-0.5222,-0.5218,-0.49,-0.4896,-0.4754,-0.4679,0,0,0,-0.5494,-0.5458,-0.5438,-0.543,-0.5391,-0.5328,-0.5326,-0.5282,-0.5279,-0.5225,-0.5218,-0.4902,-0.4897,-0.4762,-0.4693,-0.458,0,0,0,-0.5474,-0.5305,-0.5435,-0.5252,-0.5391,-0.5238,-0.5327,-0.5214,-0.515,-0.5221,-0.49,-0.4894,-0.4765,-0.4702,-0.4589,-0.4476,-0.4426,0,0,-0.5238,-0.5275,-0.517,-0.5285,-0.5097,-0.5254,-0.5045,-0.5023,-0.5053,-0.4944,-0.4937,-0.4751,-0.4694,-0.4582,-0.4164,-0.4124,0,0,0,-0.5081,-0.5005,-0.4965,-0.4903,-0.4885,-0.4862,-0.4877,-0.487,-0.478,-0.499,-0.4682,-0.4649,-0.4585,-0.4533,-0.4499,-0.4446,-0.4869,-0.487,-0.487,-0.4686,-0.4738,-0.4568,-0.4609,-0.4549,-0.4569,-0.4524,-0.4517,-0.4584,-0.4511,-0.4477,-0.4218,-0.4155,-0.413,-0.4074,-0.4424,-0.4424,-0.4423,-0.4423,-0.4343,-0.4243,-0.4341,-0.4211,-0.4267,-0.4158,-0.4171,-0.4223,-0.4129,-0.4246,-0.4192,-0.4313,-0.4084,-0.4038,-0.4412,-0.4414,-0.4415,-0.4416,-0.4417,-0.4088,-0.4049,-0.4046,-0.3965,-0.3896,-0.3945,-0.3851,-0.3905,-0.3955,-0.3902,-0.3873,-0.3875,-0.3883,-0.3885,-0.3884,-0.3883,-0.3882,-0.3882,-0.3881,-0.3822,-0.3824,-0.3739,-0.3709,-0.3678,-0.3645,-0.3666,-0.3637,-0.3618,-0.3665,-0.3665,-0.3738,-0.4054,-0.4131,-0.3867,-0.387,-0.3872,-0.3873,-0.3874,-0.345,-0.3545,-0.3413,-0.3383,-0.3353,-0.3282,-0.3355,-0.3291,-0.3276,-0.3228,-0.3315,-0.3541,-0.3581,-0.3608,-0.3672,-0.3306,-0.3306,-0.3306,-0.3306,-0.3232,-0.3261,-0.314,-0.3089,-0.3044,-0.3098,-0.2948,-0.2964,-0.2995,-0.2988,-0.305,-0.3141,-0.3167,-0.3192,-0.3228,-0.3288,-0.2832,-0.2832,-0.2832,-0.3006,-0.3033,-0.2894,-0.2929,-0.2911,-0.2894,-0.2755,-0.2691,-0.2746,-0.2814,-0.2984,-0.3004,-0.3151,-0.3196,-0.3263,-0.3318,-0.343,0,0]}]]